Powrót do katalogu

STARLINK-35749

AktywnyŁącznośćVLEO
NORAD 66879·PAYLOAD·🇺🇸 United States

Wystrzelony Dec 4, 2025 z Vandenberg Space Force Base

Loading…

Następne Przeloty (najbliższe 24 godziny)

TLE

ŚwieżeSource: CelesTrak SupGP

Epoka: Sep 15, 2026, 03:51 UTC

1 66879C 25283B   26258.16090278 -.00058306  00000+0 -17229-2 0  2586
2 66879  53.1577 222.9112 0001453  93.3277 125.6309 15.34414655    14

Śledź STARLINK-35749 w czasie rzeczywistym z AllMySat

Download on the App Store